Hourly Weather Roundup
Issued by NWS Central Illinois

Home | Current Version | Previous Version | Text Only | Print | Product List | Glossary On
Versions: 1 2 3 4 5 6 7 8 9 10 11 12 13 14 15 16 17 18 19 20 21 22 23 24 25 26 27 28 29 30 31 32 33 34 35 36 37 38 39 40 41 42 43 44 45 46 47 48 49 50
000
NZUS43 KILX 241110
HWRILX

AREA WEATHER ROUNDUP
NATIONAL WEATHER SERVICE, LINCOLN IL
600 AM CDT FRI OCT 24 2014


CITY           SKY/WX    TMP DP  RH WIND       PRES   REMARKS
BLOOMINGTON    PTCLDY    49  46  89 SW5       30.08S
CHAMPAIGN      MOCLDY    46  44  93 S5        30.09R
DECATUR        PTCLDY    48  45  89 SW6       30.09R
FLORA          PTCLDY    50  47  90 CALM      30.11S
GALESBURG      FOG       46  46  99 CALM      30.07R VSB 1
JACKSONVILLE   CLOUDY    56  53  89 SW5       30.08S
LACON          CLEAR     43  41  95 CALM      30.05S FOG
LAWRENCEVILLE  CLOUDY    51  48  89 S3        30.12R
LITCHFIELD     PTCLDY    52  47  85 W3        30.08F
$$


CITY           SKY/WX    TMP DP  RH WIND       PRES   REMARKS
LINCOLN        CLEAR     46  44  93 CALM      30.06S
MACOMB         FOG       47  47 100 CALM      30.08S VSB<1/4
MATTOON        CLOUDY    52  45  77 S5        30.09R
MT CARMEL AP   CLOUDY    54  50  87 CALM      30.11S
OLNEY-NOBLE AP CLOUDY    50  46  87 CALM      30.11S
PARIS          CLOUDY    49  47  94 CALM      30.11R
PEORIA         CLEAR     47  44  90 CALM      30.06F FOG
PONTIAC        MOCLDY    42  42  98 CALM      30.08F FOG
RANTOUL        CLOUDY    49  47  93 S3        30.08S FOG
ROBINSON       CLOUDY    52  48  86 CALM      30.12S
SPRINGFIELD    CLOUDY    53  51  93 CALM      30.08S FOG
TAYLORVILLE    CLOUDY    52  46  82 W8        30.08S
$$

...REGIONAL REPORTS...


CITY           SKY/WX    TMP DP  RH WIND       PRES   REMARKS
CHICAGO O`HARE CLOUDY    53  45  74 SW3       30.05S
KANKAKEE       CLEAR     47  45  93 S5        30.07F
MOLINE         CLOUDY    49  48  97 CALM      30.06S FOG
MOUNT VERNON   PTCLDY    48  43  81 CALM      30.11F
PITTSFIELD     FOG       56  54  93 CALM      30.09S VSB 1/2
QUINCY         FOG       55  54  96 W3        30.07S VSB 1/4
ROCKFORD       FOG       46  45  96 CALM      30.08R VSB 3/4
$$


CITY           SKY/WX    TMP DP  RH WIND       PRES   REMARKS
BURLINGTON     FOG       53  53 100 CALM      30.06R VSB 1/4
CEDAR RAPIDS   FOG       43  43 100 SE3       30.02F VSB 1/8
DES MOINES     FOG       57  56  96 S7        29.99F VSB 1/8
KIRKSVILLE     FOG       55  55 100 SW3       30.07S VSB 1/4
OTTUMWA        FOG       52  52 100 S3        30.04S VSB 1/4
ST LOUIS       PTCLDY    55  49  80 W3        30.10S
$$


CITY           SKY/WX    TMP DP  RH WIND       PRES   REMARKS
TERRE HAUTE    CLOUDY    47  46  97 CALM      30.11S
EVANSVILLE     CLOUDY    48  44  86 CALM      30.13R
INDIANAPOLIS   MOCLDY    43  40  89 W3        30.10S
LAFAYETTE      LGT RAIN  47  45  93 CALM      30.10R
MADISON        FOG       49  48  97 CALM      30.05R VSB 3/4
MILWAUKEE      CLOUDY    51  49  92 W5        30.04S
$$





USA.gov is the U.S. government's official web portal to all federal, state and local government web resources and services.